Location: Mount Graham
(32.7016°N, 109.8912°W)
Time: 19:21:49
(UTC-07:00)

Daily predictions for brighter satellites

Satellite Brightness Start Highest point End
(mag) Time Altitude Azimuth Time Altitude Azimuth Time Altitude Azimuth
Cosmos 2369 Rocket 3.2 19:38:05 10° NNW 19:43:31 48° WSW 19:48:57 10° S
Cosmos 1943 Rocket 2.2 19:41:16 10° NNW 19:46:53 90° ENE 19:52:25 10° SSE
Cosmos 2315 Rocket 4.1 19:41:23 10° S 19:47:39 89° W 19:54:01 10° N
Cosmos 405 Rocket 3.4 19:45:06 10° SSE 19:48:29 34° E 19:51:57 10° NNE
Aureole 1 Rocket 3.3 19:46:24 10° SSE 19:49:26 26° ESE 19:52:07 10° NE
Resurs 1-3 3.6 19:45:17 10° SSE 19:49:37 67° ENE 19:53:59 10° N
Tiangong 2 3.1 19:51:02 10° W 19:53:54 30° NNW 19:56:46 10° NE
Cosmos 1500 3.1 19:50:16 10° N 19:54:01 78° E 19:57:46 10° S
Cosmos 1441 Rocket 4.5 19:54:24 10° SE 19:57:18 21° E 20:00:12 10° NE
Cosmos 923 Rocket 4.0 19:54:20 10° SSW 19:59:39 84° ESE 20:04:58 10° NNE
Meteor 1-19 Rocket 4.5 19:54:21 10° S 20:00:00 53° E 20:05:34 10° NNE
Resurs 01 Rocket 1.9 19:59:04 10° S 20:03:29 72° W 20:07:55 10° NNW
Cosmos 1455 Rocket 3.0 20:03:02 10° N 20:07:24 89° ENE 20:11:43 10° S
Meteor 1-29 3.3 20:07:41 10° NNE 20:10:54 42° E 20:14:06 10° S
CENTAUR R/B 3.2 20:09:18 10° NNW 20:17:24 73° ENE 20:24:52 14° SE
Nadezhda 1 Rocket 4.3 20:12:54 10° SSE 20:18:58 51° E 20:25:07 10° NNE
COSMOS 2406 3.7 20:16:00 10° SSW 20:21:40 65° WNW 20:27:22 10° NNE
ASTRO E2 2.9 20:18:28 10° W 20:22:22 53° SSW 20:24:51 20° ESE
CZ-4B DEB 3.1 20:20:52 21° SE 20:22:27 40° ENE 20:25:17 10° N
Cosmos 2082 Rocket 3.7 20:23:35 16° ESE 20:24:21 16° E 20:27:40 10° ENE
Cosmos 1975 4.0 20:22:42 10° NNW 20:26:35 44° W 20:30:28 10° SSW
Cosmos 1743 2.6 20:22:53 10° N 20:26:47 79° E 20:30:09 14° S
Cosmos 1346 3.3 20:24:08 10° SSW 20:26:51 60° W 20:29:36 10° N
ISS -1.1 20:26:12 10° W 20:28:53 23° NW 20:31:35 10° NNE
Cosmos 2112 Rocket 4.2 20:27:00 10° SSW 20:32:12 75° WNW 20:37:25 10° NNE
Cosmos 1238 Rocket 4.2 20:26:07 10° S 20:32:43 64° E 20:39:13 10° NNE
ASTEX 1 3.6 20:34:36 20° SSE 20:37:47 50° E 20:42:30 10° N
SAR-Lupe-4 3.5 20:35:32 21° SSE 20:37:52 86° ENE 20:41:29 10° N
SL-27 R/B 3.2 20:34:45 10° SSW 20:38:20 57° WNW 20:41:57 10° N
Helios 1A 3.1 20:35:29 14° S 20:39:07 75° WSW 20:43:20 10° NNW
OAO 2 Rocket 3.5 20:35:11 10° W 20:40:05 67° N 20:44:04 16° E
SJ-11-01 4.2 20:37:38 16° SSE 20:41:26 88° WSW 20:46:09 10° NNW
H-2A R/B 3.9 20:40:27 12° E 20:41:45 13° ENE 20:44:07 10° NE
YAOGAN 6 2.7 20:41:00 32° SE 20:42:20 53° ENE 20:45:45 10° N
Aureole 3 Rocket 4.0 20:35:38 10° SSW 20:42:30 71° W 20:47:21 10° N
Cosmos 1939 Rocket 2.8 20:40:11 19° S 20:42:54 81° WSW 20:46:47 10° NNW
Cosmos 1666 2.6 20:45:28 10° N 20:49:13 81° W 20:51:14 26° S
Cosmos 967 Rocket 4.4 20:43:27 10° SSW 20:49:40 72° ESE 20:55:54 10° NNE
Okean 1-7 Rocket 3.6 20:48:27 12° S 20:52:30 87° W 20:57:01 10° N
Cosmos 1892 Rocket 4.2 20:52:30 33° ESE 20:53:17 35° E 20:57:19 10° NNE
SAR-Lupe-1 4.3 20:52:25 27° S 20:54:13 66° WSW 20:57:48 10° NNW
Meteor 2-9 Rocket 4.1 20:52:05 10° N 20:57:38 84° E 21:01:06 25° S
Cosmos 1437 Rocket 3.2 20:56:49 10° N 21:00:28 40° E 21:00:45 39° E
Cosmos 1833 Rocket 3.3 21:00:37 32° ESE 21:01:19 33° ESE 21:06:16 10° NE
Envisat 4.0 20:58:00 10° S 21:02:44 42° W 21:07:32 10° NNW
Cosmos 2056 Rocket 4.0 20:58:26 10° N 21:03:18 41° ENE 21:04:39 34° ESE
PSLV R/B 4.5 21:01:57 10° NW 21:04:46 30° NNE 21:05:22 28° NE
DNEPR-1 R/B 3.7 21:01:06 10° NNW 21:05:27 74° WSW 21:07:16 37° SSE
MetOp-A 4.3 21:04:46 36° SE 21:06:49 58° ENE 21:12:04 10° N
NOSS 8 (E) 4.4 21:05:56 16° SSW 21:08:38 87° WNW 21:12:11 10° NNE
Cosmos 1606 Rocket 3.7 21:05:43 10° N 21:09:55 50° E 21:10:24 48° ESE
Cosmos 2341 Rocket 4.2 21:05:53 10° N 21:12:06 54° E 21:14:23 37° SE
Hubble Space Telescope 3.1 21:09:22 10° SW 21:09:49 12° SSW 21:09:49 12° SSW
Cosmos 405 3.3 21:10:22 10° NNW 21:13:53 62° W 21:14:29 51° SW
Cosmos 1515 3.5 21:15:55 73° ESE 21:16:00 73° E 21:19:48 10° N
Cosmos 1025 Rocket 3.8 21:12:53 15° SSW 21:16:14 48° W 21:20:22 10° N
COSMOS 2487 3.1 21:17:34 45° NE 21:17:34 45° NE 21:20:15 10° NNE
Intercosmos 24 3.5 21:13:42 10° N 21:17:19 84° W 21:17:39 71° SSW
Cosmos 1726 Rocket 3.6 21:15:24 10° N 21:19:38 54° E 21:19:44 54° E
YAOGAN 11 3.9 21:29:45 76° ESE 21:30:00 80° ENE 21:34:19 10° N
Tiangong 2 4.1 21:29:33 10° NW 21:31:17 14° N 21:33:01 10° NNE
SPOT 1/Viking Rocket 3.7 21:32:18 50° E 21:32:49 52° ENE 21:37:49 10° N
Cosmos 2058 Rocket 3.3 21:30:04 10° N 21:34:08 57° ENE 21:34:08 57° ENE
Cosmos 1452 Rocket 4.4 21:30:32 10° N 21:35:15 32° ENE 21:35:24 32° ENE
Cosmos 2181 Rocket 4.0 21:34:12 33° S 21:37:17 87° W 21:43:37 10° N
Cosmos 1980 Rocket 4.1 21:34:07 10° NNE 21:37:22 15° ENE 21:38:08 15° ENE
ARGOS 3.1 21:40:02 59° S 21:41:08 88° WSW 21:46:35 10° NNW
Cosmos 1371 Rocket 4.4 21:37:44 10° NNW 21:42:56 57° WSW 21:44:07 46° SSW
ERS-1 Rocket 3.9 21:41:27 30° SW 21:43:14 41° W 21:47:58 10° NNW
Terra 3.1 21:46:49 29° NE 21:46:49 29° NE 21:50:18 10° N
SPOT 5 2.7 21:48:43 70° W 21:48:43 70° W 21:52:55 10° NNW
Cosmos 1295 Rocket 4.4 21:43:21 10° N 21:49:35 89° W 21:51:02 56° S
H-2A R/B 3.5 21:52:19 28° NE 21:52:19 28° NE 21:55:21 10° N
Cosmos 468 4.5 21:57:42 73° ENE 21:57:42 73° ENE 22:02:36 10° NNE
Cosmos 2082 Rocket 2.8 22:05:18 30° SW 22:07:53 54° WNW 22:13:26 10° N
Meteor 2-21 4.3 22:02:59 10° N 22:09:00 70° E 22:09:01 70° E
Cosmos 2278 3.7 22:07:28 10° NNW 22:13:08 69° WSW 22:13:11 69° WSW
SL-19 R/B 4.3 22:11:58 10° NNE 22:16:21 61° NNE 22:16:21 61° NNE
Meteor 1-22 Rocket 4.4 22:12:24 10° N 22:16:58 61° NNE 22:16:58 61° NNE
H-2A R/B 2.5 22:21:05 53° WNW 22:21:05 53° WNW 22:25:32 10° NNW
SL-8 Rocket 4.2 22:16:14 10° NNW 22:22:25 64° W 22:23:07 60° SW
Cosmos 2228 4.5 22:20:08 10° NNW 22:23:12 34° WNW 22:23:12 34° WNW
OAO 2 Rocket 4.4 22:20:01 10° WNW 22:23:01 37° W 22:23:01 37° W
Cosmos 2366 rocket 3.9 22:22:07 10° N 22:28:15 80° W 22:28:15 80° W
Cosmos 2369 4.4 22:27:29 10° NW 22:32:38 45° W 22:32:38 45° W
Cosmos 1697 Rocket 2.9 22:27:54 10° NNW 22:32:41 65° N 22:32:41 65° N
CZ-4B R/B 4.3 22:33:10 10° NNE 22:36:44 46° NNE 22:36:44 46° NNE
SL-16 R/B 4.2 22:35:58 10° NNE 22:39:28 18° NE 22:39:28 18° NE
Cosmos 1656 4.3 22:35:04 10° NNW 22:39:30 50° WNW 22:39:30 50° WNW
Cosmos 1833 Rocket 4.4 22:42:12 18° WSW 22:45:10 27° WNW 22:49:56 10° N
Cosmos 2360 Rocket 4.4 23:17:07 10° NNE 23:20:11 15° NE 23:20:11 15° NE
Lacrosse 5 rocket 4.3 23:18:42 10° N 23:20:52 13° NNE 23:20:52 13° NNE
Cosmos 1980 Rocket 3.3 23:16:14 10° NNW 23:19:54 40° NW 23:19:54 40° NW
Terra 4.1 23:25:42 18° WNW 23:25:42 18° WNW 23:27:31 10° NW
Cosmos 2322 Rocket 3.4 23:26:58 10° N 23:30:47 38° NNE 23:30:47 38° NNE
SeaSat 1 4.2 23:36:46 27° NNE 23:36:46 27° NNE 23:39:28 10° N
USA 267 3.8 23:33:11 10° NNE 23:39:30 53° NW 23:40:17 50° WNW
Lacrosse 5 3.8 23:48:51 25° NNE 23:48:51 25° NNE 23:51:06 10° NNE
NOSS 3-1 (C) 4.2 23:42:44 10° NNW 23:50:31 67° ENE 23:50:31 67° ENE
